Hourly Data Report for September 09, 2017

All times are specified in Local Standard Time (LST). Add 1 hour to adjust for Daylight Saving Time where and when it is observed.

POINT LEPREAU CS
NEW BRUNSWICK

45°04'23.040" N
66°26'57.090" W
6.00 m
8104201
71699
WPE

Download Data

Hourly Data (September 2017)
Hourly Data Report for September 9, 2017
Temp Definition
°C
Dew Point Temp Definition
°C
Rel Hum Definition
%
Wind Dir Definition
10's deg

Wind Spd Definition
km/h
Visibility Definition
km
Stn Press Definition
kPa
Hmdx Definition


Wind Chill Definition


Weather Definition


TIME
00:00 9.1 LegendMM 100 36 2   101.79     LegendNANA
01:00 9.3 LegendMM 100 35 2   101.80     LegendNANA
02:00 9.6 LegendMM 100 1 2   101.79     LegendNANA
03:00 10.3 LegendMM 100 33 7   101.80     LegendNANA
04:00 11.1 LegendMM 100 35 6   101.81     LegendNANA
05:00 11.3 LegendMM 100 1 2   101.84     LegendNANA
06:00 12.0 LegendMM 100 7 5   101.89     LegendNANA
07:00 12.4 LegendMM 100 11 9   101.99     LegendNANA
08:00 13.0 LegendMM 100 5 3   102.03     LegendNANA
09:00 13.8 13.2 96 5 4   102.07     LegendNANA
10:00 15.2 13.8 92 11 9   102.10     LegendNANA
11:00 14.7 13.5 93 13 10   102.09     LegendNANA
12:00 14.8 13.8 94 15 8   102.07     LegendNANA
13:00 17.4 15.1 86 18 8   102.07     LegendNANA
14:00 16.8 14.1 84 22 10   102.07     LegendNANA
15:00 17.3 14.7 85 20 8   102.02     LegendNANA
16:00 17.5 14.6 83 19 8   101.99     LegendNANA
17:00 17.3 13.3 77 27 6   102.03     LegendNANA
18:00 14.7 13.2 91 30 6   102.06     LegendNANA
19:00 15.3 13.5 89 35 8   102.08     LegendNANA
20:00 14.7 13.6 93 1 8   102.12     LegendNANA
21:00 14.2 13.6 96 35 10   102.16     LegendNANA
22:00 13.8 13.2 96 34 10   102.21     LegendNANA
23:00 13.1 12.6 97 35 6   102.22     LegendNANA

Notes on Data Quality.

Legend

  • E = Estimated
  • M = Missing
  • NA = Not Available
  • ‡ = Partner data that is not subject to review by the National Climate Archives
Date modified: